• In Österreich
  • Länderverzeichnis
  • Für 7 Tage
  • Wassertemperatur
  • Satellitenkarten
  • Wetterkarte
  • News
  • Widgets
  • user-avatar
    Anmelden

    Stündliche Wetter Canillo

    Heute, 15 November, Donnerstag

    Zeit Temperatur Niederschläge Wind Luftdruck Luftfeuchtigkeit
    00:00 +3°C° 0 mm 2 m/S 620 mmHg 79%
    01:00 +3°C° 0 mm 2 m/S 620 mmHg 80%
    02:00 +3°C° 0 mm 2 m/S 620 mmHg 82%
    03:00 +2°C° 0 mm 2 m/S 619 mmHg 83%
    04:00 +3°C° 0 mm 2 m/S 619 mmHg 84%
    05:00 +3°C° 0 mm 2 m/S 619 mmHg 84%
    06:00 +3°C° 0 mm 2 m/S 620 mmHg 86%
    07:00 +4°C° 0 mm 2 m/S 620 mmHg 82%
    08:00 +5°C° 0 mm 2 m/S 621 mmHg 78%
    09:00 +7°C° 0 mm 2 m/S 621 mmHg 74%
    10:00 +7°C° 0.1 mm 2 m/S 622 mmHg 72%
    11:00 +8°C° 0.1 mm 2 m/S 622 mmHg 70%
    12:00 +9°C° 0.1 mm 2 m/S 622 mmHg 68%
    13:00 +9°C° 0.3 mm 2 m/S 622 mmHg 71%
    14:00 +8°C° 0.3 mm 2 m/S 622 mmHg 73%
    15:00 +8°C° 0.3 mm 2 m/S 621 mmHg 76%
    16:00 +8°C° 0.1 mm 1 m/S 621 mmHg 81%
    17:00 +7°C° 0.1 mm 1 m/S 621 mmHg 86%
    18:00 +5°C° 0.1 mm 1 m/S 620 mmHg 91%
    19:00 +5°C° 0 mm 1 m/S 620 mmHg 91%
    20:00 +5°C° 0 mm 1 m/S 620 mmHg 91%
    21:00 +5°C° 0 mm 1 m/S 620 mmHg 91%
    22:00 +5°C° 0 mm 1 m/S 620 mmHg 90%
    23:00 +5°C° 0 mm 1 m/S 620 mmHg 89%

    Morgen, 16 November, Freitag

    Zeit Temperatur Niederschläge Wind Luftdruck Luftfeuchtigkeit
    00:00 +5°C° 0 mm 1 m/S 620 mmHg 88%
    01:00 +4°C° 0 mm 1 m/S 620 mmHg 88%
    02:00 +4°C° 0 mm 1 m/S 620 mmHg 87%
    03:00 +4°C° 0 mm 1 m/S 620 mmHg 87%
    04:00 +4°C° 0 mm 1 m/S 620 mmHg 87%
    05:00 +4°C° 0 mm 1 m/S 620 mmHg 87%
    06:00 +4°C° 0 mm 1 m/S 620 mmHg 86%
    07:00 +5°C° 0 mm 1 m/S 620 mmHg 83%
    08:00 +6°C° 0 mm 1 m/S 621 mmHg 79%
    09:00 +7°C° 0 mm 1 m/S 621 mmHg 75%
    10:00 +8°C° 0 mm 1 m/S 622 mmHg 72%
    11:00 +8°C° 0 mm 2 m/S 622 mmHg 69%
    12:00 +9°C° 0 mm 2 m/S 622 mmHg 66%
    13:00 +9°C° 0 mm 2 m/S 622 mmHg 70%
    14:00 +8°C° 0 mm 2 m/S 621 mmHg 73%
    15:00 +8°C° 0 mm 2 m/S 621 mmHg 76%
    16:00 +7°C° 0 mm 2 m/S 621 mmHg 82%
    17:00 +6°C° 0 mm 1 m/S 620 mmHg 88%
    18:00 +5°C° 0 mm 1 m/S 620 mmHg 94%
    19:00 +5°C° 0 mm 1 m/S 620 mmHg 94%
    20:00 +5°C° 0 mm 1 m/S 620 mmHg 93%
    21:00 +5°C° 0 mm 1 m/S 620 mmHg 93%
    22:00 +5°C° 0 mm 1 m/S 620 mmHg 93%
    23:00 +4°C° 0 mm 1 m/S 619 mmHg 93%

    übermorgen, 17 November, Samstag

    Zeit Temperatur Niederschläge Wind Luftdruck Luftfeuchtigkeit
    00:00 +4°C° 0 mm 1 m/S 619 mmHg 93%
    01:00 +4°C° 0 mm 1 m/S 619 mmHg 92%
    02:00 +4°C° 0 mm 1 m/S 619 mmHg 92%
    03:00 +4°C° 0 mm 1 m/S 618 mmHg 91%
    04:00 +3°C° 0 mm 1 m/S 618 mmHg 91%
    05:00 +3°C° 0 mm 1 m/S 618 mmHg 90%
    06:00 +3°C° 0 mm 1 m/S 618 mmHg 90%
    07:00 +4°C° 0 mm 1 m/S 618 mmHg 87%
    08:00 +5°C° 0 mm 1 m/S 618 mmHg 84%
    09:00 +5°C° 0 mm 1 m/S 619 mmHg 81%
    10:00 +4°C° 0.1 mm 2 m/S 618 mmHg 80%
    11:00 +5°C° 0.1 mm 2 m/S 618 mmHg 79%
    12:00 +5°C° 0.1 mm 2 m/S 618 mmHg 78%
    13:00 +4°C° 0.3 mm 2 m/S 617 mmHg 80%
    14:00 +4°C° 0.3 mm 2 m/S 617 mmHg 83%
    15:00 +2°C° 0.3 mm 3 m/S 617 mmHg 85%
    16:00 +2°C° 0.7 mm 3 m/S 616 mmHg 87%
    17:00 +1°C° 0.7 mm 3 m/S 616 mmHg 88%
    18:00 +1°C° 0.7 mm 3 m/S 616 mmHg 90%
    19:00 0°C° 0.8 mm 3 m/S 616 mmHg 90%
    20:00 0°C° 0.8 mm 3 m/S 615 mmHg 90%
    21:00 0°C° 0.8 mm 3 m/S 615 mmHg 90%
    22:00 0°C° 1 mm 3 m/S 615 mmHg 89%
    23:00 0°C° 1 mm 3 m/S 615 mmHg 89%

    18 November, Sonntag

    Zeit Temperatur Niederschläge Wind Luftdruck Luftfeuchtigkeit
    00:00 0°C° 1 mm 3 m/S 615 mmHg 89%
    01:00 0°C° 1.1 mm 3 m/S 614 mmHg 89%
    02:00 +1°C° 1.1 mm 2 m/S 614 mmHg 89%
    03:00 +1°C° 1.1 mm 2 m/S 614 mmHg 89%
    04:00 -1°C° 0.9 mm 3 m/S 614 mmHg 89%
    05:00 -1°C° 0.9 mm 3 m/S 613 mmHg 89%
    06:00 -1°C° 0.9 mm 3 m/S 613 mmHg 89%
    07:00 0°C° 1.2 mm 3 m/S 614 mmHg 89%
    08:00 0°C° 1.2 mm 3 m/S 614 mmHg 88%
    09:00 0°C° 1.2 mm 3 m/S 614 mmHg 88%
    10:00 0°C° 1.4 mm 3 m/S 614 mmHg 88%
    11:00 0°C° 1.4 mm 3 m/S 614 mmHg 89%
    12:00 +1°C° 1.4 mm 3 m/S 614 mmHg 89%
    13:00 +1°C° 0.9 mm 3 m/S 614 mmHg 90%
    14:00 +1°C° 0.9 mm 3 m/S 613 mmHg 90%
    15:00 +1°C° 0.9 mm 3 m/S 613 mmHg 90%
    16:00 0°C° 0.5 mm 3 m/S 613 mmHg 90%
    17:00 0°C° 0.5 mm 3 m/S 613 mmHg 91%
    18:00 0°C° 0.5 mm 3 m/S 613 mmHg 92%
    19:00 0°C° 0.2 mm 3 m/S 613 mmHg 92%
    20:00 0°C° 0.2 mm 3 m/S 613 mmHg 91%
    21:00 0°C° 0.2 mm 3 m/S 613 mmHg 91%
    22:00 -1°C° 0.1 mm 2 m/S 612 mmHg 90%
    23:00 -1°C° 0.1 mm 2 m/S 612 mmHg 90%

    19 November, Montag

    Zeit Temperatur Niederschläge Wind Luftdruck Luftfeuchtigkeit
    00:00 -1°C° 0.1 mm 2 m/S 612 mmHg 90%
    01:00 -1°C° 0 mm 2 m/S 611 mmHg 89%
    02:00 -1°C° 0 mm 2 m/S 611 mmHg 89%
    03:00 -1°C° 0 mm 2 m/S 611 mmHg 89%
    04:00 -2°C° 0 mm 2 m/S 610 mmHg 88%
    05:00 -2°C° 0 mm 2 m/S 610 mmHg 87%
    06:00 -2°C° 0 mm 2 m/S 610 mmHg 86%
    07:00 -1°C° 0 mm 2 m/S 610 mmHg 84%
    08:00 +1°C° 0 mm 2 m/S 611 mmHg 83%
    09:00 +2°C° 0 mm 2 m/S 611 mmHg 81%
    10:00 +3°C° 0 mm 2 m/S 611 mmHg 80%
    11:00 +4°C° 0 mm 2 m/S 611 mmHg 78%
    12:00 +4°C° 0 mm 2 m/S 611 mmHg 77%
    13:00 +4°C° 0 mm 2 m/S 610 mmHg 79%
    14:00 +4°C° 0 mm 2 m/S 610 mmHg 80%
    15:00 +3°C° 0 mm 2 m/S 609 mmHg 82%
    16:00 +2°C° 0 mm 2 m/S 609 mmHg 85%
    17:00 +1°C° 0 mm 2 m/S 609 mmHg 88%
    18:00 -1°C° 0 mm 2 m/S 608 mmHg 92%
    19:00 -2°C° 0 mm 2 m/S 608 mmHg 90%
    20:00 -3°C° 0 mm 2 m/S 608 mmHg 87%
    21:00 -3°C° 0 mm 2 m/S 608 mmHg 85%
    22:00 -4°C° 0 mm 2 m/S 607 mmHg 83%
    23:00 -4°C° 0 mm 2 m/S 607 mmHg 81%

    20 November, Dienstag

    Zeit Temperatur Niederschläge Wind Luftdruck Luftfeuchtigkeit
    00:00 -4°C° 0 mm 2 m/S 607 mmHg 78%
    01:00 -5°C° 0 mm 2 m/S 607 mmHg 77%
    02:00 -5°C° 0 mm 2 m/S 606 mmHg 76%
    03:00 -5°C° 0 mm 2 m/S 606 mmHg 74%
    04:00 -5°C° 0 mm 2 m/S 606 mmHg 74%
    05:00 -5°C° 0 mm 2 m/S 606 mmHg 75%
    06:00 -6°C° 0 mm 2 m/S 606 mmHg 75%
    07:00 -4°C° 0 mm 2 m/S 607 mmHg 72%
    08:00 -3°C° 0 mm 2 m/S 608 mmHg 70%
    09:00 -1°C° 0 mm 2 m/S 608 mmHg 67%
    10:00 +1°C° 0 mm 2 m/S 609 mmHg 66%
    11:00 +2°C° 0 mm 2 m/S 609 mmHg 66%
    12:00 +1°C° 0 mm 3 m/S 609 mmHg 65%
    13:00 +1°C° 0 mm 3 m/S 609 mmHg 65%
    14:00 +1°C° 0 mm 3 m/S 609 mmHg 66%
    15:00 0°C° 0 mm 3 m/S 609 mmHg 66%
    16:00 -2°C° 0 mm 2 m/S 608 mmHg 71%
    17:00 -4°C° 0 mm 2 m/S 608 mmHg 76%
    18:00 -6°C° 0 mm 2 m/S 608 mmHg 81%
    19:00 -6°C° 0 mm 2 m/S 608 mmHg 81%
    20:00 -6°C° 0 mm 2 m/S 608 mmHg 80%
    21:00 -7°C° 0 mm 2 m/S 608 mmHg 79%
    22:00 -7°C° 0 mm 2 m/S 608 mmHg 79%
    23:00 -7°C° 0 mm 2 m/S 608 mmHg 78%
    Mehr zeigen